| time (UTC) | temp C | wind direction | speed KPH | gust KPH | rain 1hr cm | rain 24hr cm | rain mn cm | humidity % | barometer mb |
| 20260508073022 | 2 | 51 | 0.0 | 0.0 | 0.00 | 0.03 | 0.00 | 93 | 1016.4 |
| 20260508071526 | 2 | 69 | 0.0 | 0.0 | 0.00 | 0.03 | 0.00 | 93 | 1016.3 |
| 20260508070026 | 2 | 69 | 0.0 | 0.0 | 0.00 | 0.03 | 0.00 | 93 | 1016.5 |
| 20260508064534 | 2 | 69 | 0.0 | 0.0 | 0.00 | 0.03 | 0.00 | 92 | 1016.5 |
| 20260508063017 | 3 | 69 | 0.0 | 0.0 | 0.00 | 0.05 | 0.00 | 92 | 1016.4 |
| 20260508061526 | 3 | 69 | 0.0 | 0.0 | 0.00 | 0.05 | 0.00 | 92 | 1016.4 |
| 20260508060027 | 3 | 69 | 0.0 | 0.0 | 0.00 | 0.05 | 0.00 | 92 | 1016.4 |
| 20260508054539 | 3 | 69 | 0.0 | 0.0 | 0.00 | 0.08 | 0.00 | 92 | 1016.3 |
| 20260508053016 | 3 | 69 | 0.0 | 0.0 | 0.00 | 0.08 | 0.00 | 92 | 1016.4 |
| 20260508051518 | 3 | 69 | 0.0 | 3.2 | 0.00 | 0.10 | 0.00 | 92 | 1016.4 |
| 20260508050023 | 4 | 69 | 0.0 | 3.2 | 0.00 | 0.13 | 0.00 | 91 | 1016.4 |
| 20260508044524 | 4 | 69 | 0.0 | 3.2 | 0.00 | 0.13 | 0.00 | 91 | 1016.4 |
| 20260508043028 | 4 | 69 | 0.0 | 3.2 | 0.00 | 0.15 | 0.00 | 91 | 1016.2 |
| 20260508041519 | 5 | 69 | 0.0 | 3.2 | 0.00 | 0.15 | 0.00 | 91 | 1016.1 |
| 20260508040037 | 5 | 69 | 0.0 | 3.2 | 0.00 | 0.15 | 0.00 | 90 | 1016.0 |
| 20260508034538 | 5 | 74 | 0.0 | 3.2 | 0.00 | 0.15 | 0.15 | 90 | 1015.8 |
| 20260508033028 | 5 | 73 | 0.0 | 3.2 | 0.00 | 0.15 | 0.15 | 89 | 1015.6 |
| 20260508031517 | 5 | 73 | 0.0 | 3.2 | 0.00 | 0.15 | 0.15 | 88 | 1015.4 |
| 20260508030023 | 6 | 55 | 0.0 | 3.2 | 0.00 | 0.15 | 0.15 | 88 | 1015.3 |
| 20260508024527 | 6 | 55 | 0.0 | 3.2 | 0.00 | 0.15 | 0.15 | 87 | 1015.1 |
| 20260508023024 | 6 | 51 | 0.0 | 3.2 | 0.00 | 0.15 | 0.15 | 86 | 1015.0 |
| 20260508021527 | 6 | 77 | 0.0 | 3.2 | 0.00 | 0.15 | 0.15 | 84 | 1014.6 |
| 20260508020016 | 7 | 77 | 0.0 | 3.2 | 0.00 | 0.15 | 0.15 | 83 | 1014.5 |
| 20260508014520 | 7 | 70 | 0.0 | 3.2 | 0.00 | 0.15 | 0.15 | 81 | 1014.3 |
| 20260508013023 | 7 | 70 | 0.0 | 3.2 | 0.00 | 0.15 | 0.15 | 80 | 1014.1 |
| 20260508011529 | 8 | 70 | 0.0 | 3.2 | 0.00 | 0.18 | 0.15 | 76 | 1013.7 |
| 20260508010030 | 8 | 70 | 0.0 | 3.2 | 0.00 | 0.18 | 0.15 | 74 | 1013.5 |
| 20260508004521 | 9 | 69 | 0.0 | 3.2 | 0.00 | 0.18 | 0.15 | 71 | 1013.2 |
| 20260508003023 | 10 | 69 | 0.0 | 3.2 | 0.00 | 0.18 | 0.15 | 68 | 1013.1 |
| 20260508001525 | 11 | 42 | 0.0 | 3.2 | 0.00 | 0.18 | 0.15 | 63 | 1012.9 |
| 20260508000031 | 12 | 273 | 0.0 | 14.5 | 0.00 | 0.20 | 0.15 | 55 | 1012.5 |
| 20260507234543 | 13 | 199 | 8.0 | 19.3 | 0.00 | 0.33 | 0.15 | 43 | 1012.4 |
| 20260507233022 | 14 | 241 | 3.2 | 16.1 | 0.00 | 0.46 | 0.15 | 47 | 1012.3 |
| 20260507231526 | 15 | 226 | 8.0 | 22.5 | 0.00 | 0.48 | 0.15 | 43 | 1012.1 |
| 20260507230030 | 14 | 229 | 6.4 | 12.9 | 0.00 | 0.48 | 0.15 | 44 | 1012.0 |
| 20260507224528 | 15 | 232 | 9.7 | 14.5 | 0.00 | 0.51 | 0.15 | 45 | 1012.1 |
| 20260507223028 | 15 | 267 | 3.2 | 22.5 | 0.00 | 0.51 | 0.15 | 44 | 1012.0 |
| 20260507221532 | 15 | 224 | 4.8 | 17.7 | 0.00 | 0.56 | 0.15 | 44 | 1011.9 |
| 20260507220035 | 15 | 287 | 8.0 | 17.7 | 0.00 | 0.56 | 0.15 | 43 | 1011.7 |
| 20260507214507 | 15 | 219 | 9.7 | 17.7 | 0.00 | 0.58 | 0.15 | 44 | 1011.6 |
| 20260507213016 | 16 | 240 | 4.8 | 14.5 | 0.00 | 0.58 | 0.15 | 44 | 1011.5 |
| 20260507211510 | 15 | 242 | 4.8 | 12.9 | 0.00 | 0.61 | 0.15 | 45 | 1011.2 |
| 20260507210008 | 16 | 259 | 3.2 | 17.7 | 0.00 | 0.61 | 0.15 | 44 | 1011.2 |
| 20260507204511 | 15 | 226 | 4.8 | 19.3 | 0.00 | 0.64 | 0.15 | 47 | 1011.1 |
| 20260507203012 | 15 | 229 | 4.8 | 16.1 | 0.00 | 0.64 | 0.15 | 47 | 1011.1 |
| 20260507201511 | 15 | 257 | 6.4 | 14.5 | 0.00 | 0.64 | 0.15 | 49 | 1011.3 |
| 20260507200013 | 15 | 277 | 6.4 | 16.1 | 0.00 | 0.66 | 0.15 | 50 | 1011.5 |
| 20260507194527 | 15 | 223 | 8.0 | 20.9 | 0.00 | 0.69 | 0.15 | 53 | 1011.7 |
| 20260507193015 | 15 | 226 | 8.0 | 19.3 | 0.00 | 0.69 | 0.15 | 49 | 1011.7 |
| 20260507191512 | 15 | 106 | 4.8 | 16.1 | 0.00 | 0.69 | 0.15 | 53 | 1012.1 |
| 20260507190019 | 14 | 347 | 6.4 | 12.9 | 0.00 | 0.71 | 0.15 | 51 | 1012.0 |
| 20260507184512 | 15 | 293 | 3.2 | 12.9 | 0.00 | 0.71 | 0.15 | 51 | 1012.1 |
| 20260507183015 | 15 | 306 | 3.2 | 14.5 | 0.00 | 0.71 | 0.15 | 53 | 1012.2 |
| 20260507181515 | 14 | 239 | 4.8 | 11.3 | 0.00 | 0.71 | 0.15 | 53 | 1012.1 |
| 20260507180018 | 15 | 210 | 6.4 | 12.9 | 0.00 | 0.71 | 0.15 | 56 | 1012.2 |
| 20260507174515 | 14 | 217 | 6.4 | 12.9 | 0.00 | 0.74 | 0.15 | 52 | 1012.2 |
| 20260507173031 | 15 | 238 | 4.8 | 9.7 | 0.00 | 0.79 | 0.15 | 53 | 1012.5 |
| 20260507171516 | 14 | 208 | 3.2 | 8.0 | 0.00 | 0.81 | 0.15 | 58 | 1012.7 |
| 20260507170020 | 13 | 234 | 3.2 | 9.7 | 0.00 | 0.86 | 0.15 | 54 | 1012.9 |
| 20260507164522 | 13 | 230 | 4.8 | 9.7 | 0.00 | 0.89 | 0.15 | 53 | 1013.2 |
| 20260507163017 | 13 | 219 | 3.2 | 12.9 | 0.00 | 0.91 | 0.15 | 55 | 1013.1 |
| 20260507161516 | 13 | 265 | 1.6 | 6.4 | 0.00 | 0.91 | 0.15 | 57 | 1013.0 |
| 20260507160024 | 13 | 227 | 3.2 | 9.7 | 0.00 | 0.91 | 0.15 | 56 | 1013.2 |
| 20260507154516 | 12 | 142 | 4.8 | 11.3 | 0.00 | 0.91 | 0.15 | 59 | 1013.5 |
| 20260507153016 | 12 | 323 | 1.6 | 11.3 | 0.00 | 0.91 | 0.15 | 60 | 1013.5 |
| 20260507151517 | 12 | 144 | 3.2 | 14.5 | 0.00 | 0.91 | 0.15 | 61 | 1013.5 |
| 20260507150017 | 12 | 160 | 1.6 | 8.0 | 0.00 | 0.91 | 0.15 | 66 | 1013.6 |
| 20260507144516 | 11 | 255 | 6.4 | 9.7 | 0.00 | 0.91 | 0.15 | 64 | 1013.9 |
| 20260507143023 | 12 | 207 | 6.4 | 11.3 | 0.00 | 0.91 | 0.15 | 70 | 1013.9 |
| 20260507141520 | 11 | 234 | 4.8 | 8.0 | 0.00 | 0.91 | 0.15 | 70 | 1014.1 |
| 20260507140022 | 10 | 281 | 1.6 | 4.8 | 0.00 | 0.91 | 0.15 | 78 | 1014.3 |
| 20260507134520 | 10 | 12 | 1.6 | 3.2 | 0.00 | 0.91 | 0.15 | 82 | 1014.4 |
| 20260507133021 | 10 | 219 | 1.6 | 3.2 | 0.00 | 0.91 | 0.15 | 83 | 1014.4 |
| 20260507131520 | 10 | 221 | 0.0 | 3.2 | 0.00 | 0.91 | 0.15 | 83 | 1014.5 |
| 20260507130019 | 9 | 327 | 1.6 | 3.2 | 0.00 | 0.91 | 0.15 | 87 | 1014.5 |
| 20260507124521 | 9 | 214 | 0.0 | 3.2 | 0.00 | 0.91 | 0.15 | 90 | 1014.8 |
| 20260507123003 | 8 | 221 | 0.0 | 3.2 | 0.00 | 0.97 | 0.15 | 91 | 1014.8 |
| 20260507121512 | 8 | 199 | 0.0 | 3.2 | 0.00 | 0.97 | 0.15 | 92 | 1014.7 |
| 20260507120011 | 8 | 220 | 1.6 | 4.8 | 0.00 | 1.04 | 0.15 | 92 | 1014.7 |
| 20260507114516 | 8 | 237 | 0.0 | 1.6 | 0.00 | 1.09 | 0.15 | 92 | 1014.6 |
| 20260507113038 | 8 | 237 | 0.0 | 1.6 | 0.00 | 1.14 | 0.15 | 92 | 1014.5 |
| 20260507111504 | 8 | 231 | 0.0 | 3.2 | 0.00 | 1.17 | 0.15 | 92 | 1014.2 |
| 20260507110015 | 8 | 231 | 0.0 | 3.2 | 0.00 | 1.19 | 0.15 | 92 | 1014.0 |
| 20260507104514 | 8 | 126 | 0.0 | 3.2 | 0.00 | 1.32 | 0.15 | 92 | 1013.7 |
| 20260507103021 | 8 | 96 | 0.0 | 0.0 | 0.00 | 1.37 | 0.15 | 92 | 1013.6 |
| 20260507101525 | 8 | 96 | 0.0 | 0.0 | 0.00 | 1.42 | 0.15 | 92 | 1013.7 |
| 20260507100006 | 8 | 96 | 0.0 | 0.0 | 0.00 | 1.42 | 0.15 | 92 | 1013.8 |
| 20260507094511 | 8 | 96 | 1.6 | 3.2 | 0.00 | 1.45 | 0.15 | 91 | 1013.8 |
| 20260507093018 | 8 | 175 | 1.6 | 8.0 | 0.00 | 1.60 | 0.15 | 88 | 1013.8 |
| 20260507091524 | 8 | 210 | 3.2 | 9.7 | 0.00 | 1.73 | 0.15 | 88 | 1013.7 |
| 20260507090024 | 8 | 202 | 1.6 | 9.7 | 0.03 | 1.80 | 0.15 | 88 | 1013.5 |
| 20260507084510 | 9 | 239 | 3.2 | 11.3 | 0.03 | 1.83 | 0.15 | 89 | 1013.7 |
| 20260507083024 | 9 | 228 | 3.2 | 12.9 | 0.03 | 1.85 | 0.15 | 90 | 1013.7 |
| 20260507081532 | 9 | 258 | 4.8 | 12.9 | 0.03 | 1.85 | 0.15 | 90 | 1013.5 |
| 20260507080024 | 10 | 217 | 4.8 | 9.7 | 0.00 | 1.83 | 0.13 | 91 | 1013.3 |
| 20260507074526 | 10 | 214 | 1.6 | 4.8 | 0.00 | 1.83 | 0.13 | 92 | 1013.4 |